Ibiza, Spain

6:37 PM CEST en Abril 25, 2018 (GMT +0200)
Ibiza

Tiempo Historia de LEIB - Abril, 2018

Change the Weather History Date:

Lunes, Abril 16, 2018

  Actual Average Record
Temperature  
Temperatura media 62 ° F -  
Temperatura máxima 68 ° F 68 ° F 73 ° F (2006)
Temperatura mínima 56 ° F 55 ° F 46 ° F (1999)
Degree Days  
Grados día de calefacción 3    
Growing Degree Days 12 (Base 50)    
Moisture  
Punto de rocío 52 ° F    
Average Humidity 73    
Maximum Humidity 94    
Minimum Humidity 36    
Precipitación  
Precipitación 0.04 pul 0.04 pul - ()
Presión al nivel del mar  
Presión al nivel del mar 29.97 pul    
Viento  
Velocidad del viento 11 mph ()    
Velocidad máxima del viento 25 mph    
Max Gust Speed 33 mph    
Visibilidad 7.0 Millas    
Eventos Lluvia    
Averages and records for this station are not official NWS values.
T = Trace of Precipitation, MM = Missing Value Source: Averaged Metar Reports

Daily Weather History Graph

Daily Weather History Graph

Search for Another Location

Airport or City:

Astronomía

Apr. 16, 2018 Salida Puesta
Hora real 7:16 AM CEST 8:32 PM CEST
Crepúsculo civil 6:49 AM CEST 8:59 PM CEST
Crepúsculo náutico 6:16 AM CEST 9:33 PM CEST
Crepúsculo astronómico 5:41 AM CEST 10:07 PM CEST
Luna 7:49 AM CEST (4/16) 9:04 PM CEST (4/16)
Horas de luz 14h 10m
Horas de luz
13h 15m
Luna nueva, 0% of the Moon is Illuminated
Abr 16
Luna nueva
Abr 22
Cuarto creciente
Abr 30
Luna llena
May 8
Cuarto menguante
May 15
Nueva

Hourly Weather History & Observations

Hora (CEST) Temp. Punto de rocío Humedad Presión Visibilidad Wind Dir Velocidad del viento Velocidad de ráfagas Precip Eventos Condiciones
12:00 AM 58 ° F 54 ° F 84% 29.97 pul - SO 12.7 mph - -  
12:00 AM 59.0 ° F 53.6 ° F 82% 29.98 pul 6.2 mi SO 11.5 mph - N/A   Parcialmente nublado
12:30 AM 59.0 ° F 55.4 ° F 88% 29.95 pul 6.2 mi SO 13.8 mph - N/A   Parcialmente nublado
1:00 AM 59.0 ° F 55.4 ° F 88% 29.95 pul 6.2 mi SO 11.5 mph - N/A   Parcialmente nublado
1:30 AM 59.0 ° F 55.4 ° F 88% 29.95 pul 6.2 mi SO 12.7 mph - N/A   Parcialmente nublado
2:00 AM 58 ° F 56 ° F 90% 29.95 pul 9 mi SO 9.2 mph - -   Nubes dispersas
2:00 AM 57.2 ° F 55.4 ° F 94% 29.95 pul 6.2 mi SO 8.1 mph - N/A   Parcialmente nublado
2:30 AM 57.2 ° F 55.4 ° F 94% 29.92 pul 6.2 mi SO 8.1 mph - N/A   Parcialmente nublado
3:00 AM 57.2 ° F 55.4 ° F 94% 29.92 pul 6.2 mi SO 8.1 mph - N/A   Parcialmente nublado
3:30 AM 57.2 ° F 55.4 ° F 94% 29.92 pul 6.2 mi SO 4.6 mph - N/A   Parcialmente nublado
4:00 AM 57 ° F 56 ° F 94% 29.93 pul - SO 5.8 mph - -  
4:00 AM 57.2 ° F 55.4 ° F 94% 29.92 pul 6.2 mi SO 5.8 mph - N/A   Parcialmente nublado
4:30 AM 57.2 ° F 55.4 ° F 94% 29.92 pul 6.2 mi OSO 4.6 mph - N/A   Parcialmente nublado
5:00 AM 57.2 ° F 55.4 ° F 94% 29.92 pul 5.6 mi Oeste 5.8 mph - N/A   Nubes dispersas
5:30 AM 59.0 ° F 57.2 ° F 94% 29.92 pul 5.6 mi SO 6.9 mph - N/A   Muy nublado
6:00 AM 58 ° F 57 ° F 94% 29.93 pul - SO 10.4 mph - -  
6:00 AM 59.0 ° F 57.2 ° F 94% 29.92 pul 5.0 mi SO 9.2 mph - N/A   Nublado
6:30 AM 59.0 ° F 57.2 ° F 94% 29.89 pul 5.0 mi SO 6.9 mph - N/A   Nublado
7:00 AM 58 ° F 57 ° F 94% 29.92 pul - SO 10.4 mph - -  
7:00 AM 59.0 ° F 57.2 ° F 94% 29.92 pul 5.0 mi OSO 8.1 mph - N/A   Nublado
7:30 AM 59.0 ° F 57.2 ° F 94% 29.92 pul 5.6 mi SO 16.1 mph 28.8 mph N/A   Nublado
8:00 AM 60 ° F 51 ° F 64% 29.96 pul 7 mi OSO 17.3 mph - -   Nublado
8:00 AM 60.8 ° F 51.8 ° F 72% 29.95 pul 6.2 mi OSO 15.0 mph - N/A   Muy nublado
8:30 AM 60.8 ° F 46.4 ° F 59% 29.95 pul 6.2 mi Oeste 19.6 mph - N/A   Muy nublado
9:00 AM 59 ° F 48 ° F 59% 29.96 pul - Oeste 21.9 mph - -  
9:00 AM 59.0 ° F 46.4 ° F 63% 29.95 pul 6.2 mi Oeste 21.9 mph 33.4 mph N/A   Muy nublado
9:30 AM 57.2 ° F 50.0 ° F 77% 29.95 pul 6.2 mi Oeste 25.3 mph - N/A Lluvia Lluvia débil
10:00 AM 56 ° F 51 ° F 77% 29.93 pul - ONO 11.5 mph - -   Precipitación desconocida
10:00 AM 57.2 ° F 50.0 ° F 77% 29.95 pul 5.6 mi Oeste 16.1 mph - N/A Lluvia Lluvia débil
10:30 AM 57.2 ° F 51.8 ° F 82% 29.92 pul 6.2 mi Oeste 3.5 mph - N/A   Parcialmente nublado
11:00 AM 62 ° F 51 ° F 59% 29.95 pul 19 mi OSO 16.1 mph - -   Parcialmente nublado
11:00 AM 60.8 ° F 51.8 ° F 72% 29.95 pul - OSO 9.2 mph - N/A   Despejado
11:30 AM 62.6 ° F 51.8 ° F 68% 29.95 pul - OSO 17.3 mph - N/A   Despejado
12:00 PM 64.4 ° F 46.4 ° F 52% 29.95 pul - OSO 19.6 mph - N/A   Despejado
12:30 PM 66.2 ° F 46.4 ° F 49% 29.95 pul 6.2 mi OSO 19.6 mph - N/A   Parcialmente nublado
1:00 PM 62.6 ° F 51.8 ° F 68% 29.98 pul 6.2 mi SO 17.3 mph - N/A   Parcialmente nublado
1:30 PM 64.4 ° F 53.6 ° F 68% 29.98 pul 6.2 mi OSO 15.0 mph - N/A   Parcialmente nublado
2:00 PM 67 ° F 46 ° F 36% 29.97 pul 19 mi OSO 23.0 mph - -   Parcialmente nublado
2:00 PM 68.0 ° F 46.4 ° F 46% 29.95 pul 6.2 mi OSO 19.6 mph 31.1 mph N/A   Parcialmente nublado
2:30 PM 68.0 ° F 44.6 ° F 43% 29.95 pul 6.2 mi OSO 19.6 mph - N/A   Parcialmente nublado
3:00 PM 67 ° F 48 ° F 40% 29.96 pul - SO 18.4 mph - -  
3:00 PM 68.0 ° F 48.2 ° F 49% 29.95 pul 6.2 mi SO 18.4 mph 29.9 mph N/A   Parcialmente nublado
3:30 PM 69.8 ° F 48.2 ° F 46% 29.95 pul 6.2 mi OSO 17.3 mph - N/A   Parcialmente nublado
4:00 PM 66 ° F 51 ° F 48% 29.98 pul - ONO 15.0 mph - -  
4:00 PM 66.2 ° F 50.0 ° F 56% 29.95 pul 6.2 mi ONO 13.8 mph 25.3 mph N/A   Parcialmente nublado
4:30 PM 62.6 ° F 50.0 ° F 63% 29.95 pul 6.2 mi NO 10.4 mph - N/A   Parcialmente nublado
5:00 PM 64 ° F 50 ° F 50% 29.98 pul 19 mi ONO 13.8 mph - -   Nubes dispersas
5:00 PM 62.6 ° F 50.0 ° F 63% 29.98 pul 6.2 mi ONO 13.8 mph - N/A   Parcialmente nublado
5:30 PM 60.8 ° F 48.2 ° F 63% 29.98 pul 6.2 mi NNO 11.5 mph - N/A   Parcialmente nublado
6:00 PM 61 ° F 50 ° F 58% 29.99 pul - NO 9.2 mph - -  
6:00 PM 60.8 ° F 50.0 ° F 68% 29.98 pul 6.2 mi NO 9.2 mph - N/A   Parcialmente nublado
6:30 PM 60.8 ° F 50.0 ° F 68% 29.98 pul 6.2 mi NO 6.9 mph - N/A   Parcialmente nublado
7:00 PM 61 ° F 50 ° F 57% 30.01 pul - NO 5.8 mph - -  
7:00 PM 60.8 ° F 51.8 ° F 72% 30.01 pul 6.2 mi NO 3.5 mph - N/A   Parcialmente nublado
7:30 PM 59.0 ° F 50.0 ° F 72% 30.01 pul 6.2 mi NO 8.1 mph - N/A   Parcialmente nublado
8:00 PM 59 ° F 51 ° F 66% 30.03 pul 12 mi NO 9.2 mph - -   Nubes dispersas
8:00 PM 59.0 ° F 50.0 ° F 72% 30.01 pul 6.2 mi NO 8.1 mph - N/A   Parcialmente nublado
8:30 PM 59.0 ° F 51.8 ° F 77% 30.04 pul 6.2 mi NO 9.2 mph - N/A   Parcialmente nublado
9:00 PM 59 ° F 53 ° F 73% 30.05 pul - NO 10.4 mph - -  
9:00 PM 59.0 ° F 51.8 ° F 77% 30.04 pul 6.2 mi NNO 11.5 mph - N/A   Parcialmente nublado
9:30 PM 59.0 ° F 51.8 ° F 77% 30.04 pul 6.2 mi NNO 11.5 mph - N/A   Parcialmente nublado
10:00 PM 59.0 ° F 51.8 ° F 77% 30.06 pul 6.2 mi NNO 11.5 mph - N/A   Parcialmente nublado
10:30 PM 59.0 ° F 51.8 ° F 77% 30.06 pul 6.2 mi Norte 6.9 mph - N/A   Parcialmente nublado
11:00 PM 59.0 ° F 51.8 ° F 77% 30.09 pul 6.2 mi Variable 4.6 mph - N/A   Parcialmente nublado
11:30 PM 57.2 ° F 51.8 ° F 82% 30.09 pul 6.2 mi Norte 4.6 mph - N/A   Parcialmente nublado